Back to catalog

KAIHAN 2

AliveCommunicationsLEO
NORAD 58850·PAYLOAD·🇮🇷 Iran
This satellite name has not been confirmed by official sources yet.

Launched Jan 28, 2024 from Semnan Space Center

Loading…

Next Passes (next 24 hours)

TLE

FreshSource: Space-Track

Epoch: Sep 14, 2026, 11:27 UTC

1 58850U 24018B   26257.47725635  .00001361  00000-0  16482-3 0  9997
2 58850  58.6935 262.8464 0408110 213.9941 143.4324 14.44358585138290

Track KAIHAN 2 in real time with AllMySat

Download on the App Store